User: anonymous   Login
Location: Unspecified
(0.0000°N, 0.0000°E)
Time: 08:03:19
(UTC+00:00)
Language:

RBLE - Orbit

View from above orbital plane
View from above orbital plane
View from above satellite
View from above satellite

Ground track
Ground track

The orbit data is extracted from the following two-line orbital elements,

1 43021U 98067NJ  19345.56961792  .00009672  00000-0  97510-4 0  9997
2 43021  51.6352 161.6811 0002004  76.2400 283.8819 15.66129339117220
Epoch (UTC): 11 December 2019 13:40:14
Eccentricity: 0.0002004
inclination: 51.6352°
perigee height: 368 km
apogee height: 371 km
right ascension of ascending node: 161.6811°
argument of perigee: 76.2400°
revolutions per day: 15.66129339
mean anomaly at epoch: 283.8819°
orbit number at epoch: 11722

The dashed part of the orbit path shows where the satellite is in the earth's shadow,  

DLR